Location: Deer Lodge Site
(39.6809°N, 119.9392°W)
Time: 09:23:51
(UTC-07:00)

Amateur Radio Satellites - All Passes

Search period start: 02 August 2015 08:53
Search period end: 03 August 2015 08:53
Location: Deer Lodge Site, 39.6809°N, 119.9392°W

Satellite Date Start Highest point End Downlink Frequencies (MHz)
Time Altitude Azimuth
Cosmos 2499 02 Aug 09:01:58 09:09:02 44° 286° (WNW) 09:16:36 435.465 / 435.565
COMPASS 1 02 Aug 09:14:47 09:18:17 25° 94° (E) 09:21:50 437.405
SEEDS 02 Aug 09:31:30 09:35:42 52° 100° (E) 09:39:50 437.485
RS-15 02 Aug 09:33:34 09:40:56 18° 259° (W) 09:47:26 29.354- 29.394
UNISAT 6 02 Aug 09:36:03 09:38:28 15° 65° (ENE) 09:41:06 437.425
CUTE 1.7 + AOD 2 02 Aug 09:36:25 09:40:45 76° 102° (ESE) 09:45:01 437.475
DOVE 4 02 Aug 09:36:38 09:41:18 86° 283° (WNW) 09:46:16 437.250
CINEMA 3 02 Aug 09:36:38 09:41:08 43° 98° (E) 09:45:49 145.822/145.860
FUNcube-1 02 Aug 09:37:34 09:38:33 11° 88° (E) 09:39:50 145.935
UWE-3 02 Aug 09:41:34 09:44:34 17° 91° (E) 09:47:45 435.000/436.395/437.385
SO-50 02 Aug 09:41:54 09:46:38 72° 303° (WNW) 09:51:33 436.795
M-CUBED/EXP-1 PRIME 02 Aug 09:44:18 09:48:19 73° 254° (WSW) 09:52:44 437.505
BEESAT 2 02 Aug 09:44:41 09:47:49 21° 248° (WSW) 09:50:48 435.950
CANX-2 02 Aug 09:45:02 09:49:21 77° 284° (WNW) 09:53:37 2200.000
Oscar 11 02 Aug 09:46:09 09:49:30 22° 93° (E) 09:52:56 145.826/435.025
AIST 2 02 Aug 09:47:34 09:51:47 86° 64° (ENE) 09:55:54 435.215
BRITE-PL 02 Aug 09:51:22 09:54:51 23° 290° (WNW) 09:58:26 437.365/2234.400
YUBILEINY 02 Aug 09:51:30 09:55:26 14° 57° (ENE) 10:00:00 435.215
AAUSAT CUBESAT 2 02 Aug 09:54:34 09:58:45 64° 100° (E) 10:02:53 437.432
GOMX 1 02 Aug 09:54:57 09:59:06 35° 288° (WNW) 10:03:27 467.674
HO-68 02 Aug 09:58:27 10:05:41 85° 287° (WNW) 10:12:53 435.675
CUBEBUG 2 02 Aug 09:58:58 10:03:12 34° 96° (E) 10:07:32 437.445
DUCHIFAT 1 02 Aug 10:05:33 10:06:09 10° 64° (ENE) 10:07:00 145.980
QB50P1 02 Aug 10:08:51 10:10:26 12° 65° (ENE) 10:12:14 145.935-145.965
NANOSAT C BR1 02 Aug 10:09:31 10:11:06 12° 65° (ENE) 10:12:53 145.865
AUBIESAT-1 02 Aug 10:12:41 10:16:30 40° 258° (WSW) 10:20:38 437.475
TIGRISAT 02 Aug 10:16:59 10:21:00 38° 72° (ENE) 10:25:09 435.000
ANTELSAT 02 Aug 10:19:16 10:23:22 43° 72° (ENE) 10:27:37 437.575/2403.000
PCSat 02 Aug 10:28:32 10:33:10 27° 310° (NW) 10:37:44 145.827
ZACube-1 02 Aug 10:49:46 10:54:20 72° 101° (ESE) 10:58:56 437.345
POLYITAN 1 02 Aug 10:50:13 10:54:02 35° 72° (ENE) 10:57:54 437.675
COMPASS 1 02 Aug 10:50:23 10:53:53 25° 290° (WNW) 10:57:18 437.405
50 SAT 02 Aug 10:52:41 10:54:13 12° 90° (E) 10:55:58 437.505
BUGSAT 1 02 Aug 11:03:44 11:07:13 29° 71° (ENE) 11:10:44 437.445
DELFI C3 02 Aug 11:06:21 11:10:23 64° 285° (WNW) 11:14:22 145.870
POPSAT HIP 1 02 Aug 11:06:25 11:10:29 53° 74° (ENE) 11:14:36 437.405
SEEDS 02 Aug 11:08:50 11:11:04 14° 294° (WNW) 11:13:07 437.485
UNISAT 6 02 Aug 11:10:38 11:14:51 50° 261° (W) 11:19:12 437.425
FUNcube-1 02 Aug 11:10:51 11:15:24 69° 284° (WNW) 11:19:58 145.935
QB50P2 02 Aug 11:14:20 11:18:30 69° 76° (ENE) 11:22:43 145.880/145.840
CINEMA 3 02 Aug 11:14:35 11:18:05 20° 292° (WNW) 11:21:33 145.822/145.860
UWE-3 02 Aug 11:16:55 11:21:20 45° 287° (WNW) 11:25:46 435.000/436.395/437.385
Oscar 11 02 Aug 11:21:51 11:25:45 31° 289° (WNW) 11:29:32 145.826/435.025
UKube-1 02 Aug 11:23:03 11:27:04 38° 98° (E) 11:31:06 .
HUMSAT D 02 Aug 11:25:12 11:29:33 72° 101° (ESE) 11:33:51 437.325/437.525
SO-50 02 Aug 11:25:56 11:28:09 13° 324° (NW) 11:30:14 436.795
O/OREOS (USA 219) 02 Aug 11:28:15 11:32:50 72° 67° (ENE) 11:37:25 437.305
AAUSAT CUBESAT 2 02 Aug 11:32:30 11:33:51 11° 295° (WNW) 11:34:59 437.432
AISAT 02 Aug 11:34:34 11:38:34 34° 97° (E) 11:42:38 437.250
CUBEBUG 2 02 Aug 11:35:57 11:39:44 24° 291° (WNW) 11:43:26 437.445
DUCHIFAT 1 02 Aug 11:37:17 11:41:27 68° 258° (WSW) 11:45:38 145.980
QB50P1 02 Aug 11:41:43 11:45:51 57° 260° (W) 11:50:00 145.935-145.965
NANOSAT C BR1 02 Aug 11:42:22 11:46:29 57° 259° (W) 11:50:38 145.865
CUBEBUG 1 02 Aug 11:44:36 11:48:07 24° 94° (E) 11:51:41 437.445
YUBILEINY 02 Aug 11:45:24 11:54:15 73° 80° (E) 12:03:04 435.215
HO-68 02 Aug 11:48:10 11:52:31 17° 304° (NW) 11:56:32 435.675
DX 1 02 Aug 11:53:08 11:57:30 87° 284° (WNW) 12:01:51 434.975-435.025
TIGRISAT 02 Aug 11:54:56 11:57:58 18° 269° (W) 12:00:53 435.000
ANTELSAT 02 Aug 11:57:37 12:00:26 16° 270° (W) 12:03:08 437.575/2403.000
VELOX 1 02 Aug 12:12:52 12:17:18 90° 122° (ESE) 12:21:43 145.980
SPROUT 02 Aug 12:15:42 12:18:16 16° 91° (E) 12:21:01 437.525
Cosmos 2491 02 Aug 12:18:11 12:26:45 62° 92° (E) 12:35:21 435.465 / 435.565
TISAT 1 02 Aug 12:23:15 12:24:04 11° 89° (E) 12:25:11 437.305
Cosmos 2504 02 Aug 12:23:25 12:28:06 16° 61° (ENE) 12:33:23 435.465 / 435.565
50 SAT 02 Aug 12:25:16 12:29:06 46° 286° (WNW) 12:32:55 437.505
POLYITAN 1 02 Aug 12:27:07 12:30:05 18° 268° (W) 12:32:55 437.675
ZACube-1 02 Aug 12:28:25 12:30:10 12° 296° (WNW) 12:31:40 437.345
ESTCUBE 1 02 Aug 12:30:16 12:34:47 84° 284° (WNW) 12:39:15 437.505/2401.250
AIST 1 02 Aug 12:32:02 12:36:22 67° 279° (W) 12:40:41
BUGSAT 1 02 Aug 12:39:41 12:42:44 20° 266° (W) 12:45:41 437.445
POPSAT HIP 1 02 Aug 12:45:03 12:46:46 12° 271° (W) 12:48:14 437.405
UKube-1 02 Aug 12:59:53 13:02:57 19° 293° (WNW) 13:05:53 .
HUMSAT D 02 Aug 13:03:40 13:04:45 11° 296° (WNW) 13:05:33 437.325/437.525
Gurwin Techsat 1B 02 Aug 13:10:28 13:13:14 15° 62° (ENE) 13:16:14 435.225
O/OREOS (USA 219) 02 Aug 13:11:01 13:11:43 10° 261° (W) 13:12:07 437.305
AISAT 02 Aug 13:11:36 13:14:58 21° 292° (WNW) 13:18:14 437.250
CUBEBUG 1 02 Aug 13:20:45 13:24:28 28° 290° (WNW) 13:28:06 437.445
ITAMSAT 1 02 Aug 13:23:19 13:26:32 17° 64° (ENE) 13:29:56 435.822/435.867
Oscar 19 02 Aug 13:35:58 13:41:04 81° 77° (ENE) 13:46:14 437.125/150
BEESAT 02 Aug 13:39:54 13:42:08 14° 89° (E) 13:44:38 436.000
YUBILEINY 02 Aug 13:43:45 13:50:19 23° 278° (W) 13:56:28 435.215
SPROUT 02 Aug 13:50:31 13:54:36 42° 287° (WNW) 13:58:38 437.525
TISAT 1 02 Aug 13:56:08 14:00:18 60° 286° (WNW) 14:04:27 437.305
SWISSCUBE 02 Aug 13:59:27 14:03:16 24° 94° (E) 14:07:10 437.505
JAS-2 02 Aug 14:05:07 14:09:37 22° 60° (ENE) 14:14:44 435.910
Cosmos 2504 02 Aug 14:13:19 14:21:50 81° 82° (E) 14:30:29 435.465 / 435.565
CUSAT 1 02 Aug 14:13:35 14:16:20 16° 74° (ENE) 14:19:44 437.405
Cosmos 2491 02 Aug 14:16:55 14:24:18 28° 293° (WNW) 14:31:25 435.465 / 435.565
ITUPSAT 1 02 Aug 14:20:48 14:25:12 36° 97° (E) 14:29:35 437.325
Gurwin Techsat 1B 02 Aug 14:47:21 14:52:40 73° 258° (WSW) 14:58:00 435.225
AO-7 02 Aug 14:58:40 15:06:05 38° 62° (ENE) 15:13:39 29.400- 29.500
ITAMSAT 1 02 Aug 15:00:26 15:05:35 60° 259° (WSW) 15:10:46 435.822/435.867
STARS 02 Aug 15:13:08 15:14:41 12° 89° (E) 15:16:30 437.465
BEESAT 02 Aug 15:15:44 15:20:27 59° 286° (WNW) 15:25:07 436.000
Oscar 19 02 Aug 15:19:52 15:21:11 11° 273° (W) 15:22:08 437.125/150
SWISSCUBE 02 Aug 15:36:53 15:41:12 33° 290° (WNW) 15:45:25 437.505
KKS-1 02 Aug 15:41:51 15:46:07 43° 99° (E) 15:50:23 437.445
HORYU 2 02 Aug 15:45:33 15:49:51 52° 73° (ENE) 15:54:13 437.375
DANDE 02 Aug 15:46:00 15:49:58 87° 80° (E) 15:55:20 436.750
JAS-2 02 Aug 15:47:57 15:53:59 67° 260° (W) 16:00:54 435.910
CUSAT 1 02 Aug 15:54:33 15:58:51 50° 262° (W) 16:04:30 437.405
ITUPSAT 1 02 Aug 15:59:06 16:02:54 23° 293° (WNW) 16:06:35 437.325
Cosmos 2504 02 Aug 16:07:18 16:13:14 20° 278° (W) 16:18:49 435.465 / 435.565
GONETS M04 02 Aug 16:27:28 16:34:59 33° 69° (ENE) 16:42:43
SO-50 02 Aug 16:35:18 16:37:49 14° 37° (NE) 16:40:29 436.795
MOZHAYETS 4 02 Aug 16:44:36 16:48:23 25° 94° (E) 16:52:14
STARS 02 Aug 16:47:12 16:51:34 59° 286° (WNW) 16:55:55 437.465
AO-7 02 Aug 16:50:40 16:58:44 49° 260° (W) 17:06:46 29.400- 29.500
Cosmos 2499 02 Aug 17:02:47 17:06:00 13° 56° (NE) 17:09:56 435.465 / 435.565
KKS-1 02 Aug 17:19:25 17:22:27 18° 294° (WNW) 17:25:21 437.445
HORYU 2 02 Aug 17:24:27 17:26:52 14° 270° (W) 17:29:03 437.375
Cubesat XI-IV 02 Aug 17:25:23 17:29:27 23° 66° (ENE) 17:33:39 437.490
PCSat 02 Aug 17:33:09 17:37:56 31° 51° (NE) 17:42:45 145.827
VERMONT LUNAR 02 Aug 17:52:38 17:55:34 36° 157° (SSE) 17:58:32 437.305
SO-50 02 Aug 18:14:15 18:19:14 81° 58° (ENE) 18:24:05 436.795
CUTE-I 02 Aug 18:19:17 18:24:36 70° 75° (ENE) 18:29:58 437.470
MOZHAYETS 4 02 Aug 18:21:34 18:25:37 30° 290° (WNW) 18:29:36
GONETS M04 02 Aug 18:23:52 18:32:16 54° 269° (W) 18:40:38
PHONESAT 2.4 02 Aug 18:35:42 18:37:30 14° 147° (SSE) 18:39:24 2401.200-2431.200
CUBESAT XI-V 02 Aug 18:43:02 18:47:18 38° 97° (E) 18:51:35 437.345
HO-68 02 Aug 18:43:29 18:46:03 13° 53° (NE) 18:49:03 435.675
Cosmos 2499 02 Aug 18:52:32 19:01:16 65° 79° (E) 19:10:04 435.465 / 435.565
Cubesat XI-IV 02 Aug 19:04:09 19:09:17 45° 261° (W) 19:14:26 437.490
PRISM 02 Aug 19:05:14 19:06:49 12° 90° (E) 19:08:38 437.425
PCSat 02 Aug 19:16:26 19:21:26 37° 249° (WSW) 19:26:21 145.827
BRITE-PL 02 Aug 19:23:12 19:27:06 33° 72° (ENE) 19:30:52 437.365/2234.400
GOMX 1 02 Aug 19:25:52 19:28:52 20° 69° (ENE) 19:31:56 467.674
VERMONT LUNAR 02 Aug 19:28:59 19:32:10 82° 352° (N) 19:35:22 437.305
RS-15 02 Aug 19:34:35 19:39:59 16° 100° (E) 19:46:21 29.354- 29.394
ISS 02 Aug 19:46:40 19:48:56 18° 132° (SE) 19:51:16 145.825
STRAND 1 02 Aug 19:54:54 19:59:58 60° 101° (ESE) 20:04:59 437.568
SO-50 02 Aug 19:57:27 19:59:10 11° 252° (WSW) 20:00:34 436.795
CUTE-I 02 Aug 20:02:27 20:05:18 14° 271° (W) 20:07:51 437.470
COMPASS 1 02 Aug 20:05:54 20:08:34 17° 68° (ENE) 20:11:23 437.405
PHONESAT 2.4 02 Aug 20:11:36 20:15:02 54° 161° (SSE) 20:18:29 2401.200-2431.200
CUBESAT XI-V 02 Aug 20:21:04 20:24:32 21° 292° (WNW) 20:27:50 437.345
SEEDS 02 Aug 20:22:44 20:26:30 32° 72° (ENE) 20:30:21 437.485
HO-68 02 Aug 20:25:35 20:32:38 67° 71° (ENE) 20:39:44 435.675
CUTE 1.7 + AOD 2 02 Aug 20:28:15 20:32:20 47° 73° (ENE) 20:36:29 437.475
CANX-2 02 Aug 20:36:45 20:40:59 67° 76° (ENE) 20:45:16 2200.000
CINEMA 3 02 Aug 20:38:17 20:41:56 32° 71° (ENE) 20:45:44 145.822/145.860
PRISM 02 Aug 20:38:38 20:42:37 49° 287° (WNW) 20:46:33 437.425
UWE-3 02 Aug 20:39:37 20:41:12 12° 64° (ENE) 20:43:00 435.000/436.395/437.385
Oscar 11 02 Aug 20:40:55 20:43:34 16° 67° (ENE) 20:46:22 145.826/435.025
DOVE 4 02 Aug 20:41:58 20:46:07 86° 78° (ENE) 20:50:18 437.250
AAUSAT CUBESAT 2 02 Aug 20:44:21 20:48:13 37° 72° (ENE) 20:52:09 437.432
Cosmos 2499 02 Aug 20:46:44 20:53:52 27° 276° (W) 21:00:44 435.465 / 435.565
CUBEBUG 2 02 Aug 20:57:08 21:00:27 24° 69° (ENE) 21:03:57 437.445
BRITE-PL 02 Aug 21:02:34 21:05:46 19° 267° (W) 21:08:44 437.365/2234.400
GOMX 1 02 Aug 21:03:06 21:06:53 31° 264° (W) 21:10:34 467.674
VERMONT LUNAR 02 Aug 21:05:46 21:08:58 87° 15° (NNE) 21:12:08 437.305
ISS 02 Aug 21:22:00 21:25:09 45° 327° (NNW) 21:28:19 145.825
M-CUBED/EXP-1 PRIME 02 Aug 21:28:59 21:29:48 11° 91° (E) 21:30:58 437.505
STRAND 1 02 Aug 21:35:29 21:38:43 17° 296° (WNW) 21:41:45 437.568
RS-15 02 Aug 21:39:53 21:50:43 79° 118° (ESE) 22:02:00 29.354- 29.394
COMPASS 1 02 Aug 21:39:58 21:43:57 40° 262° (W) 21:47:57 437.405
ZACube-1 02 Aug 21:44:59 21:49:01 48° 74° (ENE) 21:53:11 437.345
PHONESAT 2.4 02 Aug 21:49:27 21:52:59 76° 356° (N) 21:56:30 2401.200-2431.200
DELFI C3 02 Aug 21:52:09 21:56:11 67° 76° (ENE) 22:00:15 145.870
AUBIESAT-1 02 Aug 21:54:34 21:57:39 18° 95° (E) 22:00:50 437.475
SEEDS 02 Aug 21:59:11 22:02:24 20° 268° (W) 22:05:30 437.485
FUNcube-1 02 Aug 22:05:37 22:09:48 83° 77° (ENE) 22:14:07 145.935
CUTE 1.7 + AOD 2 02 Aug 22:06:12 22:08:33 14° 270° (W) 22:10:44 437.475
UWE-3 02 Aug 22:13:07 22:17:15 59° 260° (W) 22:21:30 435.000/436.395/437.385
ANTELSAT 02 Aug 22:14:48 22:15:25 10° 87° (E) 22:16:22 437.575/2403.000
Oscar 11 02 Aug 22:15:17 22:19:26 44° 262° (W) 22:23:36 145.826/435.025
HO-68 02 Aug 22:15:36 22:21:00 22° 269° (W) 22:26:09 435.675
HUMSAT D 02 Aug 22:16:02 22:19:58 43° 73° (ENE) 22:23:59 437.325/437.525
CINEMA 3 02 Aug 22:16:14 22:19:18 19° 268° (W) 22:22:16 145.822/145.860
UKube-1 02 Aug 22:17:11 22:20:55 30° 70° (ENE) 22:24:42 .
AAUSAT CUBESAT 2 02 Aug 22:21:11 22:24:00 17° 269° (W) 22:26:42 437.432
Cosmos 2491 02 Aug 22:30:05 22:37:16 29° 67° (ENE) 22:44:41 435.465 / 435.565
AISAT 02 Aug 22:31:42 22:35:26 28° 70° (ENE) 22:39:15 437.250
CUBEBUG 2 02 Aug 22:33:29 22:37:05 27° 266° (W) 22:40:41 437.445
BEESAT 3 02 Aug 22:36:13 22:39:25 23° 113° (ESE) 22:42:45 437.485
AIST 1 02 Aug 22:40:27 22:44:00 26° 74° (ENE) 22:47:36
CUBEBUG 1 02 Aug 22:40:29 22:43:32 20° 68° (ENE) 22:46:43 437.445
VERMONT LUNAR 02 Aug 22:42:40 22:45:31 30° 205° (SSW) 22:48:20 437.305
DX 1 02 Aug 22:47:40 22:51:59 73° 74° (ENE) 22:56:19 434.975-435.025
YUBILEINY 02 Aug 22:53:31 22:57:47 15° 79° (ENE) 23:02:40 435.215
M-CUBED/EXP-1 PRIME 02 Aug 23:00:24 23:05:14 80° 289° (WNW) 23:09:53 437.505
ISS 02 Aug 23:00:34 23:02:14 13° 346° (NNW) 23:03:53 145.825
QB50P2 02 Aug 23:02:24 23:04:00 12° 89° (E) 23:05:50 145.880/145.840
UNISAT 6 02 Aug 23:03:09 23:07:29 36° 97° (E) 23:11:50 437.425
50 SAT 02 Aug 23:07:39 23:11:32 82° 79° (E) 23:15:29 437.505
VELOX 1 02 Aug 23:09:23 23:13:46 72° 75° (ENE) 23:18:10 145.980
SPROUT 02 Aug 23:10:30 23:12:00 12° 65° (ENE) 23:13:42 437.525
DUCHIFAT 1 02 Aug 23:23:26 23:26:31 20° 93° (E) 23:29:43 145.980
ZACube-1 02 Aug 23:23:38 23:25:45 13° 271° (W) 23:27:42 437.345
PHONESAT 2.4 02 Aug 23:27:29 23:31:00 77° 195° (SSW) 23:34:30 2401.200-2431.200
QB50P1 02 Aug 23:28:01 23:31:25 23° 94° (E) 23:34:54 145.935-145.965
AUBIESAT-1 02 Aug 23:28:03 23:32:38 48° 292° (WNW) 23:37:02 437.475
NANOSAT C BR1 02 Aug 23:28:26 23:31:48 23° 94° (E) 23:35:16 145.865
ESTCUBE 1 02 Aug 23:28:44 23:33:17 81° 76° (ENE) 23:37:50 437.505/2401.250
BEESAT 2 02 Aug 23:36:01 23:40:06 84° 121° (ESE) 23:44:15 435.950
AIST 2 02 Aug 23:45:16 23:48:32 22° 113° (ESE) 23:51:54 435.215
TIGRISAT 02 Aug 23:45:23 23:50:07 83° 284° (WNW) 23:54:49 435.000
ANTELSAT 02 Aug 23:48:05 23:52:48 76° 284° (WNW) 23:57:30 437.575/2403.000
UKube-1 02 Aug 23:53:36 23:57:03 23° 266° (W) 00:00:27 .
HUMSAT D 02 Aug 23:53:37 23:56:00 14° 270° (W) 23:58:12 437.325/437.525
RS-15 02 Aug 23:54:35 00:04:26 35° 324° (NW) 00:14:29 29.354- 29.394
AISAT 03 Aug 00:08:21 00:12:01 25° 265° (W) 00:15:35 437.250
POLYITAN 1 03 Aug 00:11:33 00:15:51 77° 102° (ESE) 00:20:08 437.675
BEESAT 3 03 Aug 00:13:35 00:17:14 31° 309° (NW) 00:20:53 437.485
CUBEBUG 1 03 Aug 00:15:39 00:19:41 36° 263° (W) 00:23:41 437.445
AIST 1 03 Aug 00:18:09 00:21:34 23° 270° (W) 00:24:52
BUGSAT 1 03 Aug 00:21:12 00:25:14 57° 100° (E) 00:29:18 437.445
Cosmos 2491 03 Aug 00:26:14 00:34:46 60° 268° (W) 00:43:13 435.465 / 435.565
POPSAT HIP 1 03 Aug 00:27:49 00:32:05 71° 284° (WNW) 00:36:20 437.405
QB50P2 03 Aug 00:36:05 00:40:17 54° 286° (WNW) 00:44:27 145.880/145.840
M-CUBED/EXP-1 PRIME 03 Aug 00:38:27 00:39:15 10° 304° (NW) 00:39:47 437.505
ISS 03 Aug 00:38:53 00:39:47 11° 6° (N) 00:40:43 145.825
UNISAT 6 03 Aug 00:40:21 00:44:04 23° 292° (WNW) 00:47:41 437.425
SPROUT 03 Aug 00:43:23 00:47:37 61° 259° (W) 00:51:51 437.525
YUBILEINY 03 Aug 00:44:45 00:53:27 85° 96° (E) 01:02:16 435.215
BEESAT 03 Aug 00:45:46 00:48:30 16° 64° (ENE) 00:51:26 436.000
TISAT 1 03 Aug 00:47:02 00:51:13 89° 82° (E) 00:55:25 437.305
DUCHIFAT 1 03 Aug 00:58:35 01:02:24 33° 289° (WNW) 01:06:11 145.980
QB50P1 03 Aug 01:03:36 01:07:17 28° 290° (WNW) 01:10:53 145.935-145.965
NANOSAT C BR1 03 Aug 01:03:58 01:07:38 28° 290° (WNW) 01:11:15 145.865
SWISSCUBE 03 Aug 01:05:17 01:09:13 26° 68° (ENE) 01:13:15 437.505
PHONESAT 2.4 03 Aug 01:05:51 01:08:41 23° 209° (SSW) 01:11:28 2401.200-2431.200
BEESAT 2 03 Aug 01:17:02 01:18:46 12° 320° (NW) 01:20:24 435.950
AIST 2 03 Aug 01:23:01 01:26:56 35° 309° (NW) 01:30:51 435.215
ITUPSAT 1 03 Aug 01:26:44 01:31:10 39° 71° (ENE) 01:35:39 437.325
O/OREOS (USA 219) 03 Aug 01:39:31 01:43:59 82° 292° (WNW) 01:48:31 437.305
Oscar 19 03 Aug 01:48:43 01:53:14 31° 95° (E) 01:57:50 437.125/150
BUGSAT 1 03 Aug 01:58:44 02:00:17 12° 295° (WNW) 02:01:37 437.445
STARS 03 Aug 02:10:50 02:11:25 10° 63° (ENE) 02:12:15 437.465
RS-15 03 Aug 02:14:18 02:21:45 19° 358° (N) 02:29:24 29.354- 29.394
ISS 03 Aug 02:14:20 02:17:06 25° 26° (NNE) 02:19:54 145.825
BEESAT 03 Aug 02:21:12 02:25:56 57° 260° (W) 02:30:40 436.000
KKS-1 03 Aug 02:39:17 02:43:17 35° 71° (ENE) 02:47:21 437.445
SWISSCUBE 03 Aug 02:42:40 02:46:58 32° 264° (W) 02:51:14 437.505
Cosmos 2504 03 Aug 02:42:50 02:49:48 61° 92° (E) 02:57:20 435.465 / 435.565
YUBILEINY 03 Aug 02:45:29 02:51:38 20° 298° (WNW) 02:57:23 435.215
JAS-2 03 Aug 02:58:37 03:04:30 24° 88° (E) 03:10:33 435.910
Gurwin Techsat 1B 03 Aug 03:04:29 03:09:37 48° 99° (E) 03:14:45 435.225
ITUPSAT 1 03 Aug 03:05:28 03:09:12 21° 267° (W) 03:12:49 437.325
ITAMSAT 1 03 Aug 03:14:07 03:19:10 51° 99° (E) 03:24:12 435.822/435.867
Oscar 19 03 Aug 03:28:00 03:32:34 31° 291° (WNW) 03:37:04 437.125/150
HORYU 2 03 Aug 03:40:21 03:41:08 11° 88° (E) 03:42:13 437.375
STARS 03 Aug 03:42:57 03:47:18 75° 258° (WSW) 03:51:42 437.465
MOZHAYETS 4 03 Aug 03:45:58 03:49:32 23° 68° (ENE) 03:53:14
ISS 03 Aug 03:50:32 03:53:38 41° 224° (SW) 03:56:43 145.825
KKS-1 03 Aug 04:16:45 04:20:03 20° 267° (W) 04:23:14 437.445
RS-15 03 Aug 04:29:39 04:39:27 31° 32° (NNE) 04:49:50 29.354- 29.394
JUGNU 03 Aug 04:33:48 04:34:33 10° 180° (S) 04:35:17 437.505
Cosmos 2504 03 Aug 04:36:58 04:42:44 24° 294° (WNW) 04:48:34 435.465 / 435.565
JAS-2 03 Aug 04:42:21 04:50:12 71° 287° (WNW) 04:57:50 435.910
Gurwin Techsat 1B 03 Aug 04:45:17 04:49:18 22° 295° (WNW) 04:53:10 435.225
AO-7 03 Aug 04:52:44 05:00:59 62° 103° (ESE) 05:09:11 29.400- 29.500
ITAMSAT 1 03 Aug 04:54:36 04:58:19 20° 295° (WNW) 05:01:52 435.822/435.867
DANDE 03 Aug 04:59:09 05:02:14 48° 280° (W) 05:04:52 436.750
CUSAT 1 03 Aug 05:04:04 05:06:12 19° 285° (WNW) 05:08:11 437.405
HORYU 2 03 Aug 05:13:49 05:18:20 68° 285° (WNW) 05:22:47 437.375
MOZHAYETS 4 03 Aug 05:22:20 05:26:35 35° 264° (W) 05:30:50
GONETS M04 03 Aug 05:27:41 05:35:21 38° 87° (E) 05:43:11
CUBESAT XI-V 03 Aug 05:45:34 05:49:46 34° 71° (ENE) 05:54:00 437.345
JAS-2 03 Aug 06:29:42 06:34:03 15° 304° (WNW) 06:37:59 435.910
SRMSAT 03 Aug 06:30:08 06:30:39 10° 181° (S) 06:31:09 437.500
CUTE-I 03 Aug 06:37:44 06:42:17 29° 95° (E) 06:46:54 437.470
RS-15 03 Aug 06:42:01 06:53:54 86° 59° (ENE) 07:06:12 29.354- 29.394
AO-7 03 Aug 06:46:17 06:53:20 31° 301° (WNW) 07:00:09 29.400- 29.500
BEESAT 3 03 Aug 06:55:44 06:57:52 14° 42° (NE) 07:00:06 437.485
STRAND 1 03 Aug 07:09:49 07:14:58 80° 74° (ENE) 07:20:08 437.568
Cubesat XI-IV 03 Aug 07:21:57 07:27:19 78° 103° (ESE) 07:32:38 437.490
CUBESAT XI-V 03 Aug 07:23:33 07:27:17 23° 267° (W) 07:30:55 437.345
GONETS M04 03 Aug 07:23:49 07:32:06 45° 286° (WNW) 07:40:18
PRISM 03 Aug 07:27:15 07:31:26 78° 257° (WSW) 07:35:38 437.425
Cosmos 2499 03 Aug 07:28:15 07:35:18 51° 90° (E) 07:43:00 435.465 / 435.565
BRITE-PL 03 Aug 07:29:44 07:31:01 11° 89° (E) 07:32:39 437.365/2234.400
BEESAT 2 03 Aug 07:55:59 07:59:48 38° 52° (NE) 08:03:34 435.950
HO-68 03 Aug 07:58:00 07:59:42 11° 85° (E) 08:02:01 435.675
AIST 2 03 Aug 08:07:53 08:10:10 14° 42° (NE) 08:12:35 435.215
PCSat 03 Aug 08:14:14 08:18:53 31° 110° (ESE) 08:23:40 145.827
M-CUBED/EXP-1 PRIME 03 Aug 08:15:42 08:17:17 12° 57° (ENE) 08:19:07 437.505
CUTE-I 03 Aug 08:17:37 08:22:24 34° 291° (WNW) 08:27:05 437.470
CANX-2 03 Aug 08:24:50 08:26:32 12° 89° (E) 08:28:29 2200.000
SO-50 03 Aug 08:28:02 08:32:11 32° 114° (ESE) 08:36:32 436.795
BEESAT 3 03 Aug 08:32:15 08:36:16 65° 241° (WSW) 08:40:12 437.485
AUBIESAT-1 03 Aug 08:41:10 08:44:05 19° 61° (ENE) 08:47:17 437.475
DOVE 4 03 Aug 08:41:18 08:45:11 26° 95° (E) 08:49:20 437.250
